Location: Croissy-Beaubourg
(48.8283°N, 2.6696°E)
Time: 22:04:11
(UTC+00:00)

Cosmos 2082 - Pass Details

Date: 22 August 2022
Orbit: 832 x 856 km, 71.0° (Epoch: 28 September)

Event Time Altitude Azimuth Distance (km) Brightness Sun altitude
Rises 02:22:44 0° 331° (NNW) 3,412 7.1 -20.9°
Reaches altitude 10° 02:25:11 10° 332° (NNW) 2,476 6.4 -20.6°
Maximum altitude 02:30:54 88° 64° (ENE) 856 3.7 -20.0°
Drops below altitude 10° 02:36:36 10° 153° (SSE) 2,476 5.9 -19.4°
Sets 02:39:03 0° 154° (SSE) 3,410 6.7 -19.1°
